Weather History for Fairfield, IL

Change the Weather History Date:

Tuesday, May 20, 2014

  Actual Average (KMVN) Record (KMVN)
Temperature  
Mean Temperature 74 °F -  
Max Temperature 84 °F 73 °F 91 °F (2012)
Min Temperature 64 °F 53 °F 37 °F (2002)
Cooling Degree Days 9    
Growing Degree Days 24 (Base 50)    
Moisture  
Dew Point 65 °F    
Average Humidity 70    
Maximum Humidity 94    
Minimum Humidity 54    
Precipitation  
Precipitation 0.00 in - - ()
Sea Level Pressure  
Sea Level Pressure 29.96 in    
Wind  
Wind Speed 10 mph (SSW)    
Max Wind Speed 18 mph    
Max Gust Speed 26 mph    
Visibility 10 miles    
Events      
Averages and records for this station are not official NWS values.
T = Trace of Precipitation, MM = Missing Value Source: NWS Daily Summary

Daily Weather History Graph

Daily Weather History Graph

Search for Another Location

Airport:

Trip Planner

Search our weather history database for the weather conditions in past years. The results will help you decide how hot, cold, wet, or windy it might be!

Date:

Astronomy

May. 20, 2014 Rise Set
Actual Time 5:38 AM CDT 8:02 PM CDT
Civil Twilight 5:08 AM CDT 8:32 PM CDT
Nautical Twilight 4:31 AM CDT 9:10 PM CDT
Astronomical Twilight 3:50 AM CDT 9:51 PM CDT
Moon 12:34 AM CDT (5/20) 11:43 AM CDT (5/20)
Length of Visible Light 15h 24m
Length of Day
14h 24m
Waning Gibbous, 60% of the Moon is Illuminated
May 20
Waning Gibbous
May 21
Last Quarter
May 28
New
Jun 5
First Quarter
Jun 12
Full

Hourly Weather History & Observations

Time (CDT) Temp. Heat Index Dew Point Humidity Pressure Visibility Wind Dir Wind Speed Gust Speed Precip Events Conditions
12:15 AM 69.8 °F - 62.6 °F 78% 29.97 in 10.0 mi South 12.7 mph - N/A   Clear
1:15 AM 68.0 °F - 62.6 °F 83% 29.99 in 10.0 mi South 6.9 mph - N/A   Clear
4:17 AM 64.4 °F - 62.6 °F 94% 30.01 in 10.0 mi South 3.5 mph - N/A   Clear
4:35 AM 64.4 °F - 62.6 °F 94% 30.01 in 10.0 mi South 3.5 mph - N/A   Clear
4:55 AM 64.4 °F - 62.6 °F 94% 30.01 in 10.0 mi South 4.6 mph - N/A   Clear
5:15 AM 64.4 °F - 62.6 °F 94% 30.01 in 10.0 mi South 5.8 mph - N/A   Clear
5:35 AM 64.4 °F - 62.6 °F 94% 30.01 in 10.0 mi South 8.1 mph - N/A   Clear
5:55 AM 66.2 °F - 62.6 °F 88% 30.00 in 10.0 mi South 9.2 mph - N/A   Clear
6:15 AM 64.4 °F - 62.6 °F 94% 30.01 in 10.0 mi South 6.9 mph - N/A   Clear
6:35 AM 64.4 °F - 62.6 °F 94% 30.01 in 10.0 mi South 4.6 mph - N/A   Clear
6:55 AM 66.2 °F - 62.6 °F 88% 30.02 in 10.0 mi South 5.8 mph - N/A   Clear
7:15 AM 66.2 °F - 62.6 °F 88% 30.02 in 10.0 mi South 8.1 mph - N/A   Clear
7:35 AM 68.0 °F - 62.6 °F 83% 30.02 in 10.0 mi South 8.1 mph - N/A   Clear
7:55 AM 69.8 °F - 62.6 °F 78% 30.01 in 10.0 mi SSW 8.1 mph - N/A   Clear
8:15 AM 71.6 °F - 64.4 °F 78% 30.01 in 10.0 mi SSW 11.5 mph - N/A   Clear
8:35 AM 71.6 °F - 64.4 °F 78% 30.01 in 10.0 mi SSW 10.4 mph 17.3 mph N/A   Clear
8:55 AM 73.4 °F - 64.4 °F 73% 30.01 in 10.0 mi SSW 9.2 mph - N/A   Clear
9:15 AM 73.4 °F - 64.4 °F 73% 30.01 in 10.0 mi SSW 11.5 mph 17.3 mph N/A   Clear
9:35 AM 75.2 °F - 64.4 °F 69% 30.01 in 10.0 mi SSW 9.2 mph 17.3 mph N/A   Scattered Clouds
9:55 AM 77.0 °F - 66.2 °F 69% 30.00 in 10.0 mi SW 10.4 mph - N/A   Clear
10:15 AM 78.8 °F - 66.2 °F 65% 30.00 in 10.0 mi SW 10.4 mph 18.4 mph N/A   Clear
10:35 AM 78.8 °F - 66.2 °F 65% 30.00 in 10.0 mi SSW 12.7 mph 19.6 mph N/A   Clear
10:55 AM 78.8 °F - 66.2 °F 65% 30.00 in 10.0 mi SW 11.5 mph 17.3 mph N/A   Clear
11:15 AM 80.6 °F 82.7 °F 66.2 °F 61% 29.99 in 10.0 mi SW 11.5 mph 16.1 mph N/A   Clear
11:35 AM 80.6 °F 82.7 °F 66.2 °F 61% 29.99 in 10.0 mi SW 10.4 mph 17.3 mph N/A   Clear
11:55 AM 80.6 °F 82.7 °F 66.2 °F 61% 29.99 in 10.0 mi SSW 15.0 mph 20.7 mph N/A   Clear
12:15 PM 80.6 °F 82.7 °F 66.2 °F 61% 29.98 in 10.0 mi SW 12.7 mph 18.4 mph N/A   Clear
12:35 PM 80.6 °F 82.7 °F 66.2 °F 61% 29.97 in 10.0 mi SW 11.5 mph 19.6 mph N/A   Clear
12:55 PM 82.4 °F 84.6 °F 66.2 °F 58% 29.97 in 10.0 mi SSW 13.8 mph - N/A   Clear
1:15 PM 82.4 °F 85.4 °F 68.0 °F 62% 29.96 in 10.0 mi SSW 13.8 mph 20.7 mph N/A   Clear
1:35 PM 82.4 °F 85.4 °F 68.0 °F 62% 29.96 in 10.0 mi SSW 12.7 mph 23.0 mph N/A   Clear
1:55 PM 82.4 °F 85.4 °F 68.0 °F 62% 29.96 in 10.0 mi SSW 15.0 mph - N/A   Scattered Clouds
2:15 PM 82.4 °F 85.4 °F 68.0 °F 62% 29.95 in 10.0 mi SSW 16.1 mph 21.9 mph N/A   Clear
2:35 PM 82.4 °F 85.4 °F 68.0 °F 62% 29.95 in 10.0 mi South 17.3 mph 23.0 mph N/A   Clear
2:55 PM 82.4 °F 84.6 °F 66.2 °F 58% 29.94 in 10.0 mi SSW 15.0 mph 24.2 mph N/A   Clear
3:15 PM 82.4 °F 85.4 °F 68.0 °F 62% 29.94 in 10.0 mi SSW 11.5 mph 20.7 mph N/A   Clear
3:35 PM 82.4 °F 84.6 °F 66.2 °F 58% 29.94 in 10.0 mi South 17.3 mph 21.9 mph N/A   Clear
3:55 PM 82.4 °F 84.6 °F 66.2 °F 58% 29.93 in 10.0 mi SSW 18.4 mph 25.3 mph N/A   Clear
4:15 PM 82.4 °F 84.6 °F 66.2 °F 58% 29.93 in 10.0 mi SSW 11.5 mph - N/A   Clear
4:35 PM 84.2 °F 86.6 °F 66.2 °F 55% 29.93 in 10.0 mi SSW 15.0 mph 24.2 mph N/A   Clear
4:55 PM 82.4 °F 83.9 °F 64.4 °F 54% 29.93 in 10.0 mi SSW 10.4 mph - N/A   Clear
5:15 PM 82.4 °F 84.6 °F 66.2 °F 58% 29.92 in 10.0 mi SSW 17.3 mph 24.2 mph N/A   Clear
5:35 PM 82.4 °F 83.9 °F 64.4 °F 54% 29.91 in 10.0 mi SSW 13.8 mph 26.5 mph N/A   Clear
5:55 PM 82.4 °F 83.9 °F 64.4 °F 54% 29.91 in 10.0 mi SSW 15.0 mph 19.6 mph N/A   Clear
6:15 PM 82.4 °F 83.9 °F 64.4 °F 54% 29.91 in 10.0 mi SSW 16.1 mph 20.7 mph N/A   Clear
6:35 PM 82.4 °F 83.9 °F 64.4 °F 54% 29.90 in 10.0 mi SSW 13.8 mph 21.9 mph N/A   Clear
6:55 PM 80.6 °F 82.3 °F 64.4 °F 58% 29.90 in 10.0 mi SSW 17.3 mph 23.0 mph N/A   Clear
7:15 PM 80.6 °F 82.3 °F 64.4 °F 58% 29.90 in 10.0 mi SSW 13.8 mph 19.6 mph N/A   Clear
7:35 PM 78.8 °F - 64.4 °F 61% 29.90 in 10.0 mi SSW 12.7 mph 18.4 mph N/A   Clear
7:55 PM 78.8 °F - 64.4 °F 61% 29.90 in 10.0 mi SSW 11.5 mph 18.4 mph N/A   Clear
8:15 PM 78.8 °F - 64.4 °F 61% 29.90 in 10.0 mi SSW 11.5 mph 16.1 mph N/A   Clear
8:35 PM 77.0 °F - 64.4 °F 65% 29.91 in 10.0 mi SSW 9.2 mph - N/A   Clear
8:55 PM 75.2 °F - 64.4 °F 69% 29.92 in 10.0 mi SW 8.1 mph - N/A   Clear
9:35 PM 75.2 °F - 64.4 °F 69% 29.92 in 10.0 mi SSW 5.8 mph - N/A   Clear
9:55 PM 75.2 °F - 64.4 °F 69% 29.93 in 10.0 mi SSW 5.8 mph - N/A   Clear
10:15 PM 73.4 °F - 64.4 °F 73% 29.94 in 10.0 mi SSW 4.6 mph - N/A   Clear
10:35 PM 73.4 °F - 64.4 °F 73% 29.94 in 10.0 mi SSW 3.5 mph - N/A   Clear
10:55 PM 73.4 °F - 64.4 °F 73% 29.95 in 10.0 mi SW 3.5 mph - N/A   Clear
11:15 PM 71.6 °F - 64.4 °F 78% 29.96 in 10.0 mi SSW 3.5 mph - N/A   Clear
11:35 PM 71.6 °F - 64.4 °F 78% 29.96 in 10.0 mi SSW 4.6 mph - N/A   Clear
11:55 PM 71.6 °F - 64.4 °F 78% 29.96 in 10.0 mi Calm Calm - N/A   Clear